Regional Weather Roundup
Issued by NWS Grand Forks, ND

Home | Current Version | Previous Version | Text Only | Print | Product List | Glossary On
Versions: 1 2 3 4 5 6 7 8 9 10 11 12 13 14 15 16 17 18 19 20 21 22 23 24 25 26 27 28 29 30 31 32 33 34 35 36 37 38 39 40 41 42 43 44 45 46 47 48 49 50
000
ASUS43 KFGF 271931
RWRFGF
PRAIRIE TO PINES  WEATHER ROUNDUP
NATIONAL WEATHER SERVICE EASTERN NORTH DAKOTA/GRAND FORKS ND
100 PM CST THU NOV 27 2014

 **SATELLITE DATA USED TO AUGMENT SKY COVER AT AUTOMATED STATIONS**
 *****  WEATHER ACROSS EASTERN NORTH DAKOTA  *****

CITY           SKY/WX    TMP DP  RH WIND       PRES   REMARKS
GRAND FORKS    CLOUDY     5  -4  66 S12       30.38F WCI -11
GRAND FRKS AFB SUNNY      6  -5  60 S13       30.37F WCI -10
GRAND FRKS NWS   N/A      5 N/A N/A S6          N/A  WCI  -6
DEVILS LAKE    MOSUNNY    5  -9  51 S15       30.22F WCI -13
FARGO          SUNNY      4  -5  66 S8        30.42F WCI  -9
WAHPETON ARPT  CLEAR      7  -4  61 S9        30.41F WCI  -7
$$

 ***** WEATHER ACROSS CENTRAL AND WESTERN NORTH DAKOTA  *****

CITY           SKY/WX    TMP DP  RH WIND       PRES   REMARKS
BISMARCK       CLOUDY     9   4  80 SE16      30.16F WCI  -8
MINOT          CLOUDY    12   5  73 SE12      30.10F WCI  -2
JAMESTOWN      CLOUDY     2  -5  72 S16       30.27F WCI -18
MINOT AFB      PTSUNNY   12   9  90 SE14      30.11F WCI  -4
GARRISON         N/A     11   8  88 SE12      30.10F WCI  -3
WILLISTON      SNOW      20  17  88 E9        29.95F VSB 1/2 WCI   9
DICKINSON      CLOUDY    20  16  84 S22       29.92F WCI   3
HETTINGER      CLOUDY    20  16  84 S17       30.00F WCI   5
$$

 *****  OTHER AIRPORT OBSERVATIONS IN OUR AREA  *****

CITY           SKY/WX    TMP DP  RH WIND       PRES   REMARKS
WALHALLA         N/A      7   0  72 S9        30.31F WCI  -7
GRAFTON AIRPOR FAIR       7  -4  61 S14       30.36F WCI -10
VALLEY CITY AR MOCLDY     3  -2  78 S12       30.30F WCI -13
CANDO          FAIR       7   0  72 S13       30.22F WCI  -9
CAVALIER APRT  FAIR       7   0  72 S10       30.34F WCI  -8
GWINNER        PTCLDY     5  -6  61 S8        30.34F WCI  -8
SHEYENNE NWR     N/A      5  -7  58 S7        29.95S WCI  -7
ROLLA          FAIR       5   1  85 S13       30.16F WCI -12
 ***** THE ABOVE OBSERVATIONS ARE NON NWS ARE NOT QUALITY
       CONTROLLED AND MAY MIS-REPORT RAIN FOR SNOW...
$$

  *****  WEATHER ACROSS NORTHERN MINNESOTA  *****

CITY           SKY/WX    TMP DP  RH WIND       PRES   REMARKS
FLAG ISLAND    SUNNY      0  -8  71 S10       30.36F WCI -17
WARROAD        SUNNY      1  -6  71 SW9       30.37F WCI -14
ROSEAU         SUNNY      3  -6  66 SW8       30.37F WCI -10
HALLOCK          N/A      5  -2  72 S15       30.36F WCI -13
THF RVR FALLS  SUNNY      0  -6  78 S6        30.38F WCI -12
BAUDETTE       SUNNY      0  -7  72 S5        30.37F WCI -10
WASKISH        SUNNY      1  -6  71 CALM      30.39F
CROOKSTON      SUNNY      1  -6  71 S8        30.41F WCI -12
STEPHEN NDAWN    N/A      3  -4  72 S13         N/A  WCI -14
GREENBUSH NDAW   N/A      3  -4  72 S10         N/A  WCI -12
$$
  *****  WEATHER ACROSS CENTRAL AND WEST MINNESOTA  *****

CITY           SKY/WX    TMP DP  RH WIND       PRES   REMARKS
FOSSTON        SUNNY      3  -8  60 S3        30.38S
BEMIDJI        SUNNY      2  -9  61 CALM      30.36F
PARK RAPIDS    SUNNY      5  -6  60 CALM      30.36F
ELBOW LAKE     FAIR       4  -5  66 S8        30.39F HAZE    WCI  -9
WADENA         SUNNY      7  -4  61 CALM      30.37F
DETROIT LAKES  SUNNY      7  -4  61 SE6       30.36F WCI  -3
MOORHEAD       SUNNY      5  -2  72 S8        30.41F WCI  -8
FERGUS FALLS   SUNNY      7  -6  56 S8        30.43F WCI  -6
MORRIS MN      SUNNY      1  -6  71 S9        30.41F WCI -14
STAPLES        SUNNY      5  -8  56 CALM      30.37F
$$
  *****  WEATHER ELSEWHERE ACROSS MINNESOTA  *****

CITY           SKY/WX    TMP DP  RH WIND       PRES   REMARKS
DULUTH         SUNNY      6  -7  54 NW7       30.35F WCI  -6
INTRNTL FALLS  SUNNY      1  -7  68 CALM      30.38F
ELY            SUNNY      3  -9  55 W3        30.35F
CLOQUET        SUNNY      7  -8  51 SW5       30.37S WCI  -2
WHEATON        SUNNY      1  -6  71 S9        30.43F WCI -14
BRAINERD       SUNNY      5  -6  60 CALM      30.40F
HIBBING        SUNNY      5  -7  57 N3        30.37F
ALEXANDRIA     SUNNY      5  -5  63 S6        30.38F WCI  -6
SAINT CLOUD    SUNNY      6  -5  60 CALM      30.44F
MINNEAPOLIS    SUNNY      8  -4  58 CALM      30.47F
$$

  *****  WEATHER ACROSS SOUTH DAKOTA  *****

CITY           SKY/WX    TMP DP  RH WIND       PRES   REMARKS
SIOUX FALLS    CLOUDY     8  -4  58 SE8       30.39F WCI  -4
BROOKINGS      NOT AVBL
WATERTOWN      SUNNY      5  -5  63 S14       30.31F WCI -12
HURON          CLOUDY    11  -2  56 SE15G22   30.30F WCI  -5
SISSETON         N/A      3  -5  69 S12       30.39F WCI -13
ABERDEEN       PTSUNNY    6  -5  60 SE10      30.33F WCI  -9
MITCHELL       CLOUDY    13   3  64 SE15      30.34F WCI  -3
PIERRE         CLOUDY    20  11  68 SE18      30.14F WCI   5
MOBRIDGE       CLOUDY    15   7  70 SE17      30.11F WCI  -1
RAPID CITY     PTSUNNY   30  25  81 S12       29.98F WCI  20
$$

  *****  SOME WEATHER IN NEARBY STATES *****

CITY           SKY/WX    TMP DP  RH WIND       PRES   REMARKS
GLASGOW MT     PTSUNNY   30  27  88 E16       29.76F WCI  19
GREAT FALLS MT SUNNY     56  36  47 SW24G35   29.78S
CHEYENNE WY    CLOUDY    53  20  27 W28G39    30.14F
SCOTTSBLUFF NE MOSUNNY   33  26  75 CALM      30.06F
OMAHA NE       PTSUNNY   19   3  49 SE7       30.47F WCI  10
DES MOINES IA  CLOUDY    10  -2  58 NW8       30.51F WCI  -2
DAVENPORT IA   SUNNY     19   9  65 W15       30.42S WCI   5
CHICAGO IL     PTSUNNY   24  15  68 NW16      30.34R WCI  11
EAU CLAIRE WI  SUNNY      8  -2  63 W5        30.43F WCI   0
LA CROSSE WI   SUNNY     13   1  59 N10       30.46F WCI   0
$$

  *****  SOME NATIONAL WEATHER *****

CITY           SKY/WX    TMP DP  RH WIND       PRES   REMARKS
LA GUARDIA NY  CLOUDY    37  32  82 N7        29.97F
RALEIGH NC     PTSUNNY   45  37  76 VRB5      30.07R
ATLANTA GA     PTSUNNY   45  27  49 NW16      30.27S
NEW ORLEANS LA MOSUNNY   58  33  39 N13       30.39F
OKLAHOMA CITY  MOSUNNY   49  20  31 S9        30.46F
ALBUQUERQUE NM MOSUNNY   52  24  33 SW3       30.42F
SALT LAKE CITY CLOUDY    56  23  27 S7        30.26F
LOS ANGELES CA PTSUNNY   82  20  10 VRB3      30.09F
BOISE ID       CLOUDY    55  37  50 SE13      30.13S
SEATTLE WA     LGT RAIN  57  49  74 S17       29.84F
$$

*** WEATHER ACROSS MANITOBA...SASKATCHEWAN AND ONTARIO ***
                ***ONTARIO***

CITY           SKY/WX    TMP DP  RH WIND       PRES   REMARKS
GERALDTON      MOSUNNY   -4 -13  65 W2        30.28F
THUNDER BAY    MOSUNNY    5  -6  61 W9        30.39F WCI  -9
SIOUX LOOKOUT  SUNNY     -2 -11  65 SW6       30.32F WCI -14
TORONTO        PTSUNNY   36  21  55 NW12      30.04S
BIG TROUT LK   SUNNY     -4  -9  77 W9        30.20F WCI -20
PICKLE LAKE    MOSUNNY   -2 -13  60 W5        30.26F WCI -12
DRYDEN         SUNNY     -2  -9  71 SW7       30.32F WCI -16
KENORA         MOSUNNY   -2 -11  65 S9        30.33F WCI -18
$$
                *** MANITOBA***

CITY           SKY/WX    TMP DP  RH WIND       PRES   REMARKS
BRANDON        CLOUDY     1  -4  78 E6        30.21F WCI -10
DAUPHIN        CLOUDY     5  -2  72 E5        30.19F WCI  -4
ISLAND LAKE    MOSUNNY   -4 -13  65 SW7       30.21F WCI -18
PILOT MOUND      N/A      5   1  85 S16         N/A  WCI -14
THE PAS        LGT SNOW   0  -6  78 NW9       30.19S WCI -16
THOMPSON       MOSUNNY   -2  -9  71 NW5       30.16F WCI -12
WINNIPEG       CLOUDY     3  -6  66 S16       30.35F WCI -16
LYNN LAKE      SUNNY     -4 -11  71 NW7       30.15F WCI -18
CHURCHILL      CRYSTALS  -9 -17  70 NW17      30.07S WCI -33
GILLAM         PTSUNNY   -6 -13  71 W8        30.12S WCI -21
$$
                ***SASKATCHEWAN***

CITY           SKY/WX    TMP DP  RH WIND       PRES   REMARKS
ESTEVAN        LGT SNOW N/A N/A N/A E12         N/A  FOG
KINDERSLEY     FLURRIES  18  14  86 E18       29.86S WCI   2
LLOYDMINSTER   LGT SNOW   7   3  85 NE18G25   30.01S VSB 1   WCI -12
PRINCE ALBERT  FLURRIES  10   5  79 NE13      30.12F WCI  -5
REGINA         LGT SNOW  10   9  92 E16       30.00F VSB 3/4 WCI  -7
YORKTON        CLOUDY     5   1  85 SE9       30.11F WCI  -9
N. BATTLEFORD  LGT SNOW  14  10  85 E10       30.03F WCI   1
LA RONGE       CLOUDY     1  -4  78 NW9       30.24R WCI -14
SASKATOON      LGT SNOW  10   7  85 NE17      30.04F VSB 1   WCI  -7
SWIFT CURRENT  LGT SNOW  21  19  93 E18G24    29.77S WCI   6
$$
NOTE: THESE ARE AUTOMATED STATIONS WITH LIMITED QUALITY CONTROL
      "FAIR" INDICATES FEW OR NO CLOUDS BELOW 12,000 FEET WITH NO
      SIGNIFICANT WEATHER AND/OR OBSTRUCTIONS TO VISIBILITY.
      SKY/WX - SKY CONDITION AND SIGNIFICANT WEATHER.
      TMP - AIR TEMPERATURE.    DP   - DEWPOINT TEMPERATURE.
      RH  - RELATIVE HUMIDITY.  PRES - PRESSURE.
      HX  - HEAT INDEX.         WCI  - WIND CHILL INDEX.
$



USA.gov is the U.S. government's official web portal to all federal, state and local government web resources and services.